This is the latest recevied weather packets stored in our database for station/object G4ZMG. If no packets are shown the sender has not sent any weather packets the latest 10 day(s).
| Time | Temp. | Humidity | Pressure | Rain* | Wind** | Luminosity | Snow |
|---|---|---|---|---|---|---|---|
| 1777968007 | 11.11° C | 71% | 1013.6 hPa | 0 mm | - | 469 W/m² | - |
| 1777967403 | 11.11° C | 74% | 1013.5 hPa | 0 mm | - | 452 W/m² | - |
| 1777966803 | 10° C | 75% | 1013.6 hPa | 0 mm | - | 162 W/m² | - |
| 1777966203 | 10° C | 76% | 1013.6 hPa | 0 mm | - | 183 W/m² | - |
| 1777965603 | 10° C | 77% | 1013.6 hPa | 0 mm | - | 193 W/m² | - |
| 1777965002 | 10° C | 78% | 1013.7 hPa | 0 mm | - | 174 W/m² | - |
| 1777964405 | 9.44° C | 78% | 1013.7 hPa | 0 mm | - | 144 W/m² | - |
| 1777963802 | 9.44° C | 80% | 1013.7 hPa | 0 mm | - | 116 W/m² | - |
| 1777963201 | 9.44° C | 80% | 1013.8 hPa | 0 mm | - | 91 W/m² | - |
| 1777962602 | 8.89° C | 80% | 1013.7 hPa | 0 mm | - | 63 W/m² | - |
| 1777962003 | 8.89° C | 80% | 1013.6 hPa | 0 mm | - | 42 W/m² | - |
| 1777961404 | 8.89° C | 80% | 1013.6 hPa | 0 mm | - | 35 W/m² | - |
| 1777960807 | 8.89° C | 80% | 1013.6 hPa | 0 mm | - | 26 W/m² | - |
| 1777960202 | 8.89° C | 80% | 1013.5 hPa | 0 mm | - | 19 W/m² | - |
| 1777959604 | 8.89° C | 80% | 1013.6 hPa | 0 mm | - | 21 W/m² | - |
| 1777959005 | 8.89° C | 80% | 1013.7 hPa | 0 mm | - | 21 W/m² | - |
| 1777958403 | 8.89° C | 80% | 1013.5 hPa | 0 mm | - | 19 W/m² | - |
| 1777957803 | 8.89° C | 80% | 1013.3 hPa | 0 mm | - | 16 W/m² | - |
| 1777957206 | 8.89° C | 80% | 1013.3 hPa | 0 mm | - | 14 W/m² | - |
| 1777956601 | 8.89° C | 80% | 1013.3 hPa | 0 mm | - | 11 W/m² | - |
| 1777956002 | 8.89° C | 80% | 1013.3 hPa | 0 mm | - | 7 W/m² | - |
| 1777955402 | 8.89° C | 80% | 1013.2 hPa | 0 mm | - | 0 W/m² | - |
| 1777954804 | 8.89° C | 81% | 1013.3 hPa | 0 mm | - | 0 W/m² | - |
| 1777954203 | 8.89° C | 81% | 1013.4 hPa | 0 mm | - | 0 W/m² | - |
| 1777953605 | 8.89° C | 81% | 1013.3 hPa | 0 mm | - | 0 W/m² | - |
* Rain latest hour (hover to see other rain measurements)
** Current wind speed in m/s (hover to see current wind gust speed)